Time,TemperatureF,DewpointF,PressureIn,WindDirection,WindDirectionDegrees,WindSpeedMPH,WindSpeedGustMPH,Humidity,HourlyPrecipIn,Conditions,Clouds,dailyrainin,SoftwareType,DateUTC
2013-01-01 00:03:00,19.1,15.2,30.37,ENE,68,0.0,0.0,85,0.00,,,0.00,WUHU216HW,2013-01-01 08:03:00,
2013-01-01 00:08:00,18.9,15.0,30.37,ENE,68,0.2,0.4,85,0.00,,,0.00,WUHU216HW,2013-01-01 08:08:00,
2013-01-01 00:13:00,19.1,15.2,30.37,ENE,68,0.0,0.4,85,0.00,,,0.00,WUHU216HW,2013-01-01 08:13:00,
2013-01-01 00:18:00,19.1,15.2,30.37,ENE,68,0.0,0.2,85,0.00,,,0.00,WUHU216HW,2013-01-01 08:18:00,
2013-01-01 00:23:00,19.3,15.7,30.37,ENE,68,0.0,0.0,86,0.00,,,0.00,WUHU216HW,2013-01-01 08:23:00,
2013-01-01 00:28:00,19.4,15.8,30.37,ENE,68,0.0,0.2,86,0.00,,,0.00,WUHU216HW,2013-01-01 08:28:00,
2013-01-01 00:33:00,19.8,16.2,30.37,ENE,68,0.0,0.4,86,0.00,,,0.00,WUHU216HW,2013-01-01 08:33:00,
2013-01-01 00:38:00,19.8,16.2,30.37,ENE,68,0.0,0.4,86,0.00,,,0.00,WUHU216HW,2013-01-01 08:38:00,
2013-01-01 00:43:00,20.2,16.6,30.36,ENE,68,0.0,0.0,86,0.00,,,0.00,WUHU216HW,2013-01-01 08:43:00,
2013-01-01 00:48:00,20.3,17.0,30.36,ENE,68,0.2,1.1,87,0.00,,,0.00,WUHU216HW,2013-01-01 08:48:00,
2013-01-01 00:53:00,20.5,17.2,30.36,ENE,68,0.7,1.1,87,0.00,,,0.00,WUHU216HW,2013-01-01 08:53:00,
2013-01-01 00:58:00,20.5,17.2,30.36,ENE,68,0.0,1.1,87,0.00,,,0.00,WUHU216HW,2013-01-01 08:58:00,
2013-01-01 01:03:00,20.7,17.4,30.36,ENE,68,0.4,1.1,87,0.00,,,0.00,WUHU216HW,2013-01-01 09:03:00,
2013-01-01 01:08:00,20.9,17.6,30.36,ENE,68,0.0,0.4,87,0.00,,,0.00,WUHU216HW,2013-01-01 09:08:00,
2013-01-01 01:13:00,20.9,17.6,30.35,ENE,68,0.0,0.0,87,0.00,,,0.00,WUHU216HW,2013-01-01 09:13:00,
2013-01-01 01:18:00,20.5,17.2,30.36,ENE,68,0.0,0.4,87,0.00,,,0.00,WUHU216HW,2013-01-01 09:18:00,
2013-01-01 01:23:00,20.5,17.2,30.36,ENE,68,0.2,0.4,87,0.00,,,0.00,WUHU216HW,2013-01-01 09:23:00,
2013-01-01 01:28:00,20.5,17.2,30.36,ENE,68,0.0,0.7,87,0.00,,,0.00,WUHU216HW,2013-01-01 09:28:00,
2013-01-01 01:33:00,20.7,17.4,30.36,ENE,68,0.0,0.7,87,0.00,,,0.00,WUHU216HW,2013-01-01 09:33:00,
2013-01-01 01:38:00,20.9,17.6,30.36,ENE,68,0.4,0.4,87,0.00,,,0.00,WUHU216HW,2013-01-01 09:38:00,
2013-01-01 01:43:00,21.1,17.7,30.36,ENE,68,0.2,0.7,87,0.00,,,0.00,WUHU216HW,2013-01-01 09:43:00,
2013-01-01 01:48:00,21.2,17.9,30.37,ENE,68,0.0,2.0,87,0.00,,,0.00,WUHU216HW,2013-01-01 09:48:00,
2013-01-01 01:53:00,21.2,17.9,30.37,ENE,68,0.0,2.0,87,0.00,,,0.00,WUHU216HW,2013-01-01 09:53:00,
2013-01-01 01:58:00,21.2,17.9,30.37,ENE,68,0.0,0.7,87,0.00,,,0.00,WUHU216HW,2013-01-01 09:58:00,
2013-01-01 02:03:00,21.4,18.1,30.37,ENE,68,0.4,0.4,87,0.00,,,0.00,WUHU216HW,2013-01-01 10:03:00,
2013-01-01 02:08:00,21.6,18.3,30.38,ENE,68,1.1,1.3,87,0.00,,,0.00,WUHU216HW,2013-01-01 10:08:00,
2013-01-01 02:13:00,21.6,18.3,30.38,ENE,68,0.0,1.3,87,0.00,,,0.00,WUHU216HW,2013-01-01 10:13:00,
2013-01-01 02:19:00,21.6,18.3,30.38,ENE,68,1.8,1.8,87,0.00,,,0.00,WUHU216HW,2013-01-01 10:19:00,
2013-01-01 02:24:00,21.6,18.3,30.39,ENE,68,0.2,2.0,87,0.00,,,0.00,WUHU216HW,2013-01-01 10:24:00,
2013-01-01 02:29:00,21.6,18.3,30.40,ENE,68,0.4,2.0,87,0.00,,,0.00,WUHU216HW,2013-01-01 10:29:00,
2013-01-01 02:34:00,21.6,18.3,30.39,ENE,68,0.0,1.3,87,0.00,,,0.00,WUHU216HW,2013-01-01 10:34:00,
2013-01-01 02:39:00,21.4,18.1,30.39,ENE,68,0.4,1.3,87,0.00,,,0.00,WUHU216HW,2013-01-01 10:39:00,
2013-01-01 02:44:00,21.6,18.3,30.40,ENE,68,0.0,1.3,87,0.00,,,0.00,WUHU216HW,2013-01-01 10:44:00,
2013-01-01 02:49:00,21.6,18.3,30.39,ENE,68,0.2,1.1,87,0.00,,,0.00,WUHU216HW,2013-01-01 10:49:00,
2013-01-01 02:54:00,21.6,18.3,30.40,ENE,68,0.7,1.8,87,0.00,,,0.00,WUHU216HW,2013-01-01 10:54:00,
2013-01-01 03:00:00,21.6,18.3,30.39,ENE,68,0.0,1.8,87,0.00,,,0.00,WUHU216HW,2013-01-01 11:00:00,
2013-01-01 03:05:00,21.4,18.1,30.40,ENE,68,1.1,1.1,87,0.00,,,0.00,WUHU216HW,2013-01-01 11:05:00,
2013-01-01 03:10:00,21.4,18.1,30.40,ENE,68,0.0,1.1,87,0.00,,,0.00,WUHU216HW,2013-01-01 11:10:00,
2013-01-01 03:15:00,21.4,18.1,30.40,ENE,68,0.4,0.7,87,0.00,,,0.00,WUHU216HW,2013-01-01 11:15:00,
2013-01-01 03:20:00,21.6,18.3,30.39,ENE,68,0.0,1.1,87,0.00,,,0.00,WUHU216HW,2013-01-01 11:20:00,
2013-01-01 03:25:00,21.4,18.1,30.40,ENE,68,1.8,2.7,87,0.00,,,0.00,WUHU216HW,2013-01-01 11:25:00,
2013-01-01 03:30:00,21.2,17.9,30.40,ENE,68,0.0,2.7,87,0.00,,,0.00,WUHU216HW,2013-01-01 11:30:00,
2013-01-01 03:35:00,21.2,17.6,30.40,ENE,68,0.0,1.8,86,0.00,,,0.00,WUHU216HW,2013-01-01 11:35:00,
2013-01-01 03:41:00,21.2,17.9,30.41,ENE,68,0.2,2.0,87,0.00,,,0.00,WUHU216HW,2013-01-01 11:41:00,
2013-01-01 03:46:00,21.2,17.6,30.40,ENE,68,0.0,2.0,86,0.00,,,0.00,WUHU216HW,2013-01-01 11:46:00,
2013-01-01 03:51:00,21.2,17.6,30.40,ENE,68,0.0,1.8,86,0.00,,,0.00,WUHU216HW,2013-01-01 11:51:00,
2013-01-01 03:56:00,21.2,17.6,30.41,ENE,68,0.0,1.8,86,0.00,,,0.00,WUHU216HW,2013-01-01 11:56:00,
2013-01-01 04:01:00,21.2,17.6,30.41,ENE,68,0.0,1.1,86,0.00,,,0.00,WUHU216HW,2013-01-01 12:01:00,
2013-01-01 04:06:00,21.4,17.8,30.42,ENE,68,0.2,1.1,86,0.00,,,0.00,WUHU216HW,2013-01-01 12:06:00,
2013-01-01 04:11:00,21.4,17.8,30.42,ENE,68,0.9,0.9,86,0.00,,,0.00,WUHU216HW,2013-01-01 12:11:00,
2013-01-01 04:17:00,21.6,18.0,30.42,ENE,68,0.4,0.9,86,0.00,,,0.00,WUHU216HW,2013-01-01 12:17:00,
2013-01-01 04:22:00,21.6,18.3,30.41,ENE,68,0.0,0.9,87,0.00,,,0.00,WUHU216HW,2013-01-01 12:22:00,
2013-01-01 04:27:00,21.8,18.2,30.42,ENE,68,0.4,0.7,86,0.00,,,0.00,WUHU216HW,2013-01-01 12:27:00,
2013-01-01 04:32:00,21.8,18.5,30.42,ENE,68,0.0,0.7,87,0.00,,,0.00,WUHU216HW,2013-01-01 12:32:00,
2013-01-01 04:37:00,22.0,18.6,30.42,ENE,68,0.0,0.4,87,0.00,,,0.00,WUHU216HW,2013-01-01 12:37:00,
2013-01-01 04:42:00,22.0,18.6,30.43,ENE,68,0.0,0.2,87,0.00,,,0.00,WUHU216HW,2013-01-01 12:42:00,
2013-01-01 04:47:00,22.1,18.5,30.42,ENE,68,0.0,0.0,86,0.00,,,0.00,WUHU216HW,2013-01-01 12:47:00,
2013-01-01 04:53:00,22.1,18.5,30.42,ENE,68,0.0,0.0,86,0.00,,,0.00,WUHU216HW,2013-01-01 12:53:00,
2013-01-01 04:58:00,22.1,18.5,30.42,ENE,68,0.0,0.0,86,0.00,,,0.00,WUHU216HW,2013-01-01 12:58:00,
2013-01-01 05:03:00,22.1,18.5,30.43,ENE,68,0.4,0.4,86,0.00,,,0.00,WUHU216HW,2013-01-01 13:03:00,
2013-01-01 05:08:00,22.3,18.7,30.43,ENE,68,0.0,0.9,86,0.00,,,0.00,WUHU216HW,2013-01-01 13:08:00,
2013-01-01 05:13:00,22.3,18.7,30.42,ENE,68,0.0,0.9,86,0.00,,,0.00,WUHU216HW,2013-01-01 13:13:00,
2013-01-01 05:18:00,22.3,18.7,30.42,ENE,68,0.0,0.4,86,0.00,,,0.00,WUHU216HW,2013-01-01 13:18:00,
2013-01-01 05:23:00,22.3,18.7,30.42,ENE,68,0.0,0.0,86,0.00,,,0.00,WUHU216HW,2013-01-01 13:23:00,
2013-01-01 05:28:00,22.5,18.9,30.42,ENE,68,0.0,0.0,86,0.00,,,0.00,WUHU216HW,2013-01-01 13:28:00,
2013-01-01 05:34:00,22.5,18.9,30.42,ENE,68,0.0,0.0,86,0.00,,,0.00,WUHU216HW,2013-01-01 13:34:00,
2013-01-01 05:39:00,22.5,18.9,30.42,ENE,68,0.0,0.0,86,0.00,,,0.00,WUHU216HW,2013-01-01 13:39:00,
2013-01-01 05:44:00,22.5,18.9,30.43,ENE,68,0.0,0.0,86,0.00,,,0.00,WUHU216HW,2013-01-01 13:44:00,
2013-01-01 05:49:00,22.7,19.1,30.43,ENE,68,0.0,0.0,86,0.00,,,0.00,WUHU216HW,2013-01-01 13:49:00,
2013-01-01 05:54:00,22.7,19.1,30.43,ENE,68,0.0,0.0,86,0.00,,,0.00,WUHU216HW,2013-01-01 13:54:00,
2013-01-01 05:59:00,22.7,19.1,30.43,ENE,68,0.0,0.0,86,0.00,,,0.00,WUHU216HW,2013-01-01 13:59:00,
2013-01-01 06:04:00,22.7,19.1,30.43,ENE,68,0.0,0.2,86,0.00,,,0.00,WUHU216HW,2013-01-01 14:04:00,
2013-01-01 06:09:00,22.7,19.1,30.42,ENE,68,0.0,0.2,86,0.00,,,0.00,WUHU216HW,2013-01-01 14:09:00,
2013-01-01 06:15:00,22.7,19.1,30.42,ENE,68,0.0,0.0,86,0.00,,,0.00,WUHU216HW,2013-01-01 14:15:00,
2013-01-01 06:20:00,22.9,19.3,30.42,ENE,68,0.0,0.0,86,0.00,,,0.00,WUHU216HW,2013-01-01 14:20:00,
2013-01-01 06:25:00,22.9,19.3,30.43,ENE,68,0.0,0.0,86,0.00,,,0.00,WUHU216HW,2013-01-01 14:25:00,
2013-01-01 06:30:00,23.0,19.7,30.42,ENE,68,0.0,0.0,87,0.00,,,0.00,WUHU216HW,2013-01-01 14:30:00,
2013-01-01 06:35:00,23.0,19.7,30.42,ENE,68,0.0,0.0,87,0.00,,,0.00,WUHU216HW,2013-01-01 14:35:00,
2013-01-01 06:40:00,23.0,19.7,30.42,ENE,68,0.0,0.0,87,0.00,,,0.00,WUHU216HW,2013-01-01 14:40:00,
2013-01-01 06:45:00,23.0,19.7,30.42,ENE,68,0.0,0.0,87,0.00,,,0.00,WUHU216HW,2013-01-01 14:45:00,
2013-01-01 06:50:00,23.2,19.9,30.42,ENE,68,0.0,0.0,87,0.00,,,0.00,WUHU216HW,2013-01-01 14:50:00,
2013-01-01 06:56:00,23.2,19.9,30.43,ENE,68,0.0,0.0,87,0.00,,,0.00,WUHU216HW,2013-01-01 14:56:00,
2013-01-01 07:01:00,23.4,20.1,30.43,ENE,68,0.0,0.0,87,0.00,,,0.00,WUHU216HW,2013-01-01 15:01:00,
2013-01-01 07:06:00,23.4,20.1,30.43,ENE,68,0.0,0.0,87,0.00,,,0.00,WUHU216HW,2013-01-01 15:06:00,
2013-01-01 07:11:00,23.4,20.1,30.43,ENE,68,0.0,0.0,87,0.00,,,0.00,WUHU216HW,2013-01-01 15:11:00,
2013-01-01 07:16:00,23.4,20.1,30.43,ENE,68,0.0,0.0,87,0.00,,,0.00,WUHU216HW,2013-01-01 15:16:00,
2013-01-01 07:21:00,23.6,20.3,30.43,ENE,68,0.0,0.0,87,0.00,,,0.00,WUHU216HW,2013-01-01 15:21:00,
2013-01-01 07:26:00,23.6,20.3,30.43,ENE,68,0.0,0.4,87,0.00,,,0.00,WUHU216HW,2013-01-01 15:26:00,
2013-01-01 07:32:00,23.6,20.3,30.43,ENE,68,0.0,0.7,87,0.00,,,0.00,WUHU216HW,2013-01-01 15:32:00,
2013-01-01 07:37:00,23.6,20.3,30.43,ENE,68,0.4,0.7,87,0.00,,,0.00,WUHU216HW,2013-01-01 15:37:00,
2013-01-01 07:42:00,23.8,20.4,30.43,ENE,68,0.0,0.4,87,0.00,,,0.00,WUHU216HW,2013-01-01 15:42:00,
2013-01-01 07:47:00,23.6,20.3,30.43,ENE,68,0.0,0.4,87,0.00,,,0.00,WUHU216HW,2013-01-01 15:47:00,
2013-01-01 07:52:00,23.8,20.4,30.43,ENE,68,0.0,0.0,87,0.00,,,0.00,WUHU216HW,2013-01-01 15:52:00,
2013-01-01 07:57:00,23.8,20.4,30.43,ENE,68,0.0,0.0,87,0.00,,,0.00,WUHU216HW,2013-01-01 15:57:00,
2013-01-01 08:02:00,23.8,20.4,30.44,ENE,68,0.0,0.0,87,0.00,,,0.00,WUHU216HW,2013-01-01 16:02:00,
2013-01-01 08:07:00,23.8,20.4,30.44,ENE,68,0.0,0.0,87,0.00,,,0.00,WUHU216HW,2013-01-01 16:07:00,
2013-01-01 08:13:00,23.9,20.6,30.45,ENE,68,0.4,1.6,87,0.00,,,0.00,WUHU216HW,2013-01-01 16:13:00,
2013-01-01 08:18:00,24.1,20.8,30.45,ENE,68,0.0,1.6,87,0.00,,,0.00,WUHU216HW,2013-01-01 16:18:00,
2013-01-01 08:23:00,24.1,20.8,30.45,ENE,68,0.4,0.7,87,0.00,,,0.00,WUHU216HW,2013-01-01 16:23:00,
2013-01-01 08:28:00,24.3,21.0,30.45,ENE,68,0.4,0.7,87,0.00,,,0.00,WUHU216HW,2013-01-01 16:28:00,
2013-01-01 08:33:00,24.3,21.0,30.45,ENE,68,0.0,0.4,87,0.00,,,0.00,WUHU216HW,2013-01-01 16:33:00,
2013-01-01 08:38:00,24.5,21.2,30.45,ENE,68,0.0,1.1,87,0.00,,,0.00,WUHU216HW,2013-01-01 16:38:00,
2013-01-01 08:43:00,24.5,21.2,30.45,ENE,68,0.0,1.1,87,0.00,,,0.00,WUHU216HW,2013-01-01 16:43:00,
2013-01-01 08:48:00,24.7,21.3,30.45,ENE,68,0.0,0.2,87,0.00,,,0.00,WUHU216HW,2013-01-01 16:48:00,
2013-01-01 08:54:00,24.8,21.5,30.46,ENE,68,0.0,0.0,87,0.00,,,0.00,WUHU216HW,2013-01-01 16:54:00,
2013-01-01 08:59:00,24.8,21.5,30.46,ENE,68,0.0,0.7,87,0.00,,,0.00,WUHU216HW,2013-01-01 16:59:00,
2013-01-01 09:04:00,25.0,21.7,30.46,ENE,68,0.2,0.9,87,0.00,,,0.00,WUHU216HW,2013-01-01 17:04:00,
2013-01-01 09:09:00,25.2,21.9,30.46,ENE,68,0.0,1.1,87,0.00,,,0.00,WUHU216HW,2013-01-01 17:09:00,
2013-01-01 09:14:00,25.2,21.9,30.46,ENE,68,0.0,1.1,87,0.00,,,0.00,WUHU216HW,2013-01-01 17:14:00,
2013-01-01 09:19:00,25.4,22.1,30.47,ENE,68,0.0,0.4,87,0.00,,,0.00,WUHU216HW,2013-01-01 17:19:00,
2013-01-01 09:24:00,25.4,22.1,30.47,ENE,68,0.0,0.0,87,0.00,,,0.00,WUHU216HW,2013-01-01 17:24:00,
2013-01-01 09:30:00,25.6,22.2,30.47,ENE,68,0.0,1.6,87,0.00,,,0.00,WUHU216HW,2013-01-01 17:30:00,
2013-01-01 09:35:00,25.6,22.2,30.47,ENE,68,1.3,1.6,87,0.00,,,0.00,WUHU216HW,2013-01-01 17:35:00,
2013-01-01 09:40:00,25.6,22.0,30.47,ENE,68,0.0,1.6,86,0.00,,,0.00,WUHU216HW,2013-01-01 17:40:00,
2013-01-01 09:45:00,25.7,22.2,30.47,ENE,68,1.8,1.8,86,0.00,,,0.00,WUHU216HW,2013-01-01 17:45:00,
2013-01-01 09:50:00,25.7,22.2,30.48,ENE,68,1.1,1.8,86,0.00,,,0.00,WUHU216HW,2013-01-01 17:50:00,
2013-01-01 09:55:00,25.9,22.3,30.48,ENE,68,0.7,1.8,86,0.00,,,0.00,WUHU216HW,2013-01-01 17:55:00,
2013-01-01 10:00:00,25.9,22.3,30.48,ENE,68,0.2,2.0,86,0.00,,,0.00,WUHU216HW,2013-01-01 18:00:00,
2013-01-01 10:05:00,25.9,22.0,30.48,ENE,68,1.1,2.0,85,0.00,,,0.00,WUHU216HW,2013-01-01 18:05:00,
2013-01-01 10:11:00,25.9,22.0,30.48,ENE,68,1.8,1.8,85,0.00,,,0.00,WUHU216HW,2013-01-01 18:11:00,
2013-01-01 10:16:00,25.9,22.0,30.48,ENE,68,1.3,2.2,85,0.00,,,0.00,WUHU216HW,2013-01-01 18:16:00,
2013-01-01 10:21:00,25.9,22.0,30.49,ENE,68,1.1,2.2,85,0.00,,,0.00,WUHU216HW,2013-01-01 18:21:00,
2013-01-01 10:26:00,26.1,22.1,30.48,ENE,68,0.0,1.8,85,0.00,,,0.00,WUHU216HW,2013-01-01 18:26:00,
2013-01-01 10:31:00,26.3,22.3,30.48,ENE,68,0.0,2.5,85,0.00,,,0.00,WUHU216HW,2013-01-01 18:31:00,
2013-01-01 10:36:00,26.3,22.3,30.48,ENE,68,0.4,2.5,85,0.00,,,0.00,WUHU216HW,2013-01-01 18:36:00,
2013-01-01 10:41:00,26.3,22.3,30.48,ENE,68,0.2,1.8,85,0.00,,,0.00,WUHU216HW,2013-01-01 18:41:00,
2013-01-01 10:46:00,26.5,22.5,30.48,ENE,68,0.4,3.4,85,0.00,,,0.00,WUHU216HW,2013-01-01 18:46:00,
2013-01-01 10:50:00,26.5,22.5,30.48,ENE,68,0.0,3.4,85,0.00,,,0.00,WUHU216HW,2013-01-01 18:50:00,
2013-01-01 10:56:00,26.6,22.7,30.48,ENE,68,0.9,2.0,85,0.00,,,0.00,WUHU216HW,2013-01-01 18:56:00,
2013-01-01 11:01:00,26.8,22.9,30.48,ENE,68,2.5,3.1,85,0.00,,,0.00,WUHU216HW,2013-01-01 19:01:00,
2013-01-01 11:06:00,26.8,22.6,30.48,ENE,68,3.1,3.4,84,0.00,,,0.00,WUHU216HW,2013-01-01 19:06:00,
2013-01-01 11:11:00,27.0,22.8,30.49,ENE,68,1.1,3.8,84,0.00,,,0.00,WUHU216HW,2013-01-01 19:11:00,
2013-01-01 11:16:00,27.0,22.8,30.49,ENE,68,1.6,4.5,84,0.00,,,0.00,WUHU216HW,2013-01-01 19:16:00,
2013-01-01 11:21:00,27.0,22.8,30.49,ENE,68,0.2,4.5,84,0.00,,,0.00,WUHU216HW,2013-01-01 19:21:00,
2013-01-01 11:26:00,27.0,22.8,30.49,ENE,68,0.7,4.0,84,0.00,,,0.00,WUHU216HW,2013-01-01 19:26:00,
2013-01-01 11:31:00,27.2,23.0,30.49,ENE,68,0.0,2.2,84,0.00,,,0.00,WUHU216HW,2013-01-01 19:31:00,
2013-01-01 11:36:00,27.2,22.7,30.49,ENE,68,0.4,1.8,83,0.00,,,0.00,WUHU216HW,2013-01-01 19:36:00,
2013-01-01 11:41:00,27.4,22.9,30.49,ENE,68,0.4,2.5,83,0.00,,,0.00,WUHU216HW,2013-01-01 19:41:00,
2013-01-01 11:45:00,27.2,23.0,30.48,ENE,68,1.8,3.4,84,0.00,,,0.00,WUHU216HW,2013-01-01 19:45:00,
2013-01-01 11:51:00,27.0,22.5,30.48,ENE,68,1.8,3.4,83,0.00,,,0.00,WUHU216HW,2013-01-01 19:51:00,
2013-01-01 11:56:00,27.0,22.8,30.48,ENE,68,1.8,3.1,84,0.00,,,0.00,WUHU216HW,2013-01-01 19:56:00,
2013-01-01 12:00:00,27.0,22.5,30.48,ENE,68,0.0,2.0,83,0.00,,,0.00,WUHU216HW,2013-01-01 20:00:00,
2013-01-01 12:05:00,27.2,23.0,30.48,ENE,68,1.1,2.7,84,0.00,,,0.00,WUHU216HW,2013-01-01 20:05:00,
2013-01-01 12:10:00,27.2,23.0,30.48,ENE,68,0.0,2.7,84,0.00,,,0.00,WUHU216HW,2013-01-01 20:10:00,
2013-01-01 12:15:00,27.2,23.0,30.48,ENE,68,0.0,1.8,84,0.00,,,0.00,WUHU216HW,2013-01-01 20:15:00,
2013-01-01 12:20:00,27.4,23.1,30.48,ENE,68,0.0,1.1,84,0.00,,,0.00,WUHU216HW,2013-01-01 20:20:00,
2013-01-01 12:25:00,27.4,23.1,30.48,ENE,68,1.8,2.5,84,0.00,,,0.00,WUHU216HW,2013-01-01 20:25:00,
2013-01-01 12:30:00,27.5,23.3,30.48,ENE,68,0.4,2.5,84,0.00,,,0.00,WUHU216HW,2013-01-01 20:30:00,
2013-01-01 12:35:00,27.5,23.3,30.47,ENE,68,1.1,1.8,84,0.00,,,0.00,WUHU216HW,2013-01-01 20:35:00,
2013-01-01 12:40:00,27.4,22.9,30.47,ENE,68,0.4,2.5,83,0.00,,,0.00,WUHU216HW,2013-01-01 20:40:00,
2013-01-01 12:45:00,27.2,22.7,30.47,ENE,68,0.0,2.5,83,0.00,,,0.00,WUHU216HW,2013-01-01 20:45:00,
2013-01-01 12:50:00,27.4,22.9,30.48,ENE,68,1.6,1.6,83,0.00,,,0.00,WUHU216HW,2013-01-01 20:50:00,
2013-01-01 12:55:00,27.2,23.0,30.48,ENE,68,0.0,2.5,84,0.00,,,0.00,WUHU216HW,2013-01-01 20:55:00,
2013-01-01 13:00:00,27.2,22.7,30.48,ENE,68,1.8,2.5,83,0.00,,,0.00,WUHU216HW,2013-01-01 21:00:00,
2013-01-01 13:05:00,27.2,23.0,30.48,ENE,68,0.0,1.8,84,0.00,,,0.00,WUHU216HW,2013-01-01 21:05:00,
2013-01-01 13:10:00,27.4,22.9,30.48,ENE,68,0.4,1.8,83,0.00,,,0.00,WUHU216HW,2013-01-01 21:10:00,
2013-01-01 13:15:00,27.4,23.1,30.48,ENE,68,0.4,1.8,84,0.00,,,0.00,WUHU216HW,2013-01-01 21:15:00,
2013-01-01 13:20:00,27.4,22.9,30.48,ENE,68,0.0,1.6,83,0.00,,,0.00,WUHU216HW,2013-01-01 21:20:00,
2013-01-01 13:25:00,27.2,22.7,30.47,ENE,68,0.2,1.6,83,0.00,,,0.00,WUHU216HW,2013-01-01 21:25:00,
2013-01-01 13:30:00,27.2,22.7,30.48,ENE,68,0.0,1.6,83,0.00,,,0.00,WUHU216HW,2013-01-01 21:30:00,
2013-01-01 13:35:00,27.2,22.7,30.48,ENE,68,0.4,1.1,83,0.00,,,0.00,WUHU216HW,2013-01-01 21:35:00,
2013-01-01 13:40:00,27.2,22.7,30.48,ENE,68,0.9,0.9,83,0.00,,,0.00,WUHU216HW,2013-01-01 21:40:00,
2013-01-01 13:45:00,27.4,22.9,30.48,ENE,68,0.2,1.3,83,0.00,,,0.00,WUHU216HW,2013-01-01 21:45:00,
2013-01-01 13:50:00,27.4,22.9,30.48,ENE,68,0.2,1.3,83,0.00,,,0.00,WUHU216HW,2013-01-01 21:50:00,
2013-01-01 13:55:00,27.4,22.9,30.48,ENE,68,1.6,2.5,83,0.00,,,0.00,WUHU216HW,2013-01-01 21:55:00,
2013-01-01 14:00:00,27.7,23.5,30.48,ENE,68,0.4,2.5,84,0.00,,,0.00,WUHU216HW,2013-01-01 22:00:00,
2013-01-01 14:05:00,27.9,23.4,30.48,ENE,68,0.0,1.8,83,0.00,,,0.00,WUHU216HW,2013-01-01 22:05:00,
2013-01-01 14:10:00,27.7,23.2,30.47,ENE,68,0.0,1.8,83,0.00,,,0.00,WUHU216HW,2013-01-01 22:10:00,
2013-01-01 14:15:00,27.5,23.1,30.47,ENE,68,0.4,1.8,83,0.00,,,0.00,WUHU216HW,2013-01-01 22:15:00,
2013-01-01 14:20:00,27.5,23.1,30.48,ENE,68,0.4,1.3,83,0.00,,,0.00,WUHU216HW,2013-01-01 22:20:00,
2013-01-01 14:25:00,27.5,23.3,30.48,ENE,68,0.4,1.3,84,0.00,,,0.00,WUHU216HW,2013-01-01 22:25:00,
2013-01-01 14:30:00,27.5,23.3,30.47,ENE,68,0.0,0.7,84,0.00,,,0.00,WUHU216HW,2013-01-01 22:30:00,
2013-01-01 14:35:00,27.5,23.1,30.47,ENE,68,0.0,0.7,83,0.00,,,0.00,WUHU216HW,2013-01-01 22:35:00,
2013-01-01 14:40:00,27.4,23.1,30.48,ENE,68,0.9,0.9,84,0.00,,,0.00,WUHU216HW,2013-01-01 22:40:00,
2013-01-01 14:45:00,27.4,22.9,30.48,ENE,68,0.7,1.1,83,0.00,,,0.00,WUHU216HW,2013-01-01 22:45:00,
2013-01-01 14:50:00,27.4,22.9,30.48,ENE,68,0.0,1.1,83,0.00,,,0.00,WUHU216HW,2013-01-01 22:50:00,
2013-01-01 14:55:00,27.4,22.9,30.48,ENE,68,0.0,0.7,83,0.00,,,0.00,WUHU216HW,2013-01-01 22:55:00,
2013-01-01 15:00:00,27.4,22.9,30.48,ENE,68,0.0,0.7,83,0.00,,,0.00,WUHU216HW,2013-01-01 23:00:00,
2013-01-01 15:05:00,27.2,22.7,30.48,ENE,68,0.4,0.7,83,0.00,,,0.00,WUHU216HW,2013-01-01 23:05:00,
2013-01-01 15:10:00,27.4,22.9,30.49,ENE,68,0.0,0.7,83,0.00,,,0.00,WUHU216HW,2013-01-01 23:10:00,
2013-01-01 15:15:00,27.2,23.0,30.48,ENE,68,0.4,0.7,84,0.00,,,0.00,WUHU216HW,2013-01-01 23:15:00,
2013-01-01 15:20:00,27.0,22.5,30.48,ENE,68,0.4,1.8,83,0.00,,,0.00,WUHU216HW,2013-01-01 23:20:00,
2013-01-01 15:25:00,26.8,22.3,30.48,ENE,68,0.4,1.8,83,0.00,,,0.00,WUHU216HW,2013-01-01 23:25:00,
2013-01-01 15:30:00,27.0,22.5,30.48,ENE,68,0.2,0.9,83,0.00,,,0.00,WUHU216HW,2013-01-01 23:30:00,
2013-01-01 15:35:00,26.8,22.3,30.48,ENE,68,0.0,2.9,83,0.00,,,0.00,WUHU216HW,2013-01-01 23:35:00,
2013-01-01 15:40:00,26.8,22.3,30.48,ENE,68,0.4,2.9,83,0.00,,,0.00,WUHU216HW,2013-01-01 23:40:00,
2013-01-01 15:45:00,26.6,22.2,30.48,ENE,68,0.9,2.0,83,0.00,,,0.00,WUHU216HW,2013-01-01 23:45:00,
2013-01-01 15:50:00,26.5,22.0,30.48,ENE,68,0.0,2.0,83,0.00,,,0.00,WUHU216HW,2013-01-01 23:50:00,
2013-01-01 15:55:00,26.5,22.0,30.49,ENE,68,0.0,1.8,83,0.00,,,0.00,WUHU216HW,2013-01-01 23:55:00,
2013-01-01 16:00:00,26.5,22.0,30.49,ENE,68,0.0,1.8,83,0.00,,,0.00,WUHU216HW,2013-01-02 00:00:00,
2013-01-01 16:05:00,26.5,22.0,30.49,ENE,68,0.0,0.0,83,0.00,,,0.00,WUHU216HW,2013-01-02 00:05:00,
2013-01-01 16:10:00,26.6,22.2,30.49,ENE,68,0.0,0.0,83,0.00,,,0.00,WUHU216HW,2013-01-02 00:10:00,
2013-01-01 16:15:00,26.6,22.2,30.49,ENE,68,0.0,1.3,83,0.00,,,0.00,WUHU216HW,2013-01-02 00:15:00,
2013-01-01 16:20:00,26.6,22.2,30.49,ENE,68,3.1,3.4,83,0.00,,,0.00,WUHU216HW,2013-01-02 00:20:00,
2013-01-01 16:25:00,26.5,22.0,30.49,ENE,68,1.1,3.4,83,0.00,,,0.00,WUHU216HW,2013-01-02 00:25:00,
2013-01-01 16:30:00,26.3,21.8,30.49,ENE,68,0.0,1.6,83,0.00,,,0.00,WUHU216HW,2013-01-02 00:30:00,
2013-01-01 16:35:00,26.3,21.8,30.49,ENE,68,1.8,2.5,83,0.00,,,0.00,WUHU216HW,2013-01-02 00:35:00,
2013-01-01 16:40:00,26.1,21.3,30.49,ENE,68,0.0,2.5,82,0.00,,,0.00,WUHU216HW,2013-01-02 00:40:00,
2013-01-01 16:45:00,26.1,21.3,30.49,ENE,68,0.0,1.8,82,0.00,,,0.00,WUHU216HW,2013-01-02 00:45:00,
2013-01-01 16:50:00,26.1,21.3,30.49,ENE,68,0.7,2.7,82,0.00,,,0.00,WUHU216HW,2013-01-02 00:50:00,
2013-01-01 16:55:00,26.1,21.3,30.49,ENE,68,0.0,2.7,82,0.00,,,0.00,WUHU216HW,2013-01-02 00:55:00,
2013-01-01 17:00:00,26.1,21.3,30.49,ENE,68,0.0,1.6,82,0.00,,,0.00,WUHU216HW,2013-01-02 01:00:00,
2013-01-01 17:05:00,26.3,22.1,30.49,ENE,68,0.0,1.6,84,0.00,,,0.00,WUHU216HW,2013-01-02 01:05:00,
2013-01-01 17:10:00,26.3,22.1,30.49,ENE,68,0.0,0.4,84,0.00,,,0.00,WUHU216HW,2013-01-02 01:10:00,
2013-01-01 17:15:00,26.3,22.1,30.49,ENE,68,0.0,0.7,84,0.00,,,0.00,WUHU216HW,2013-01-02 01:15:00,
2013-01-01 17:20:00,26.3,22.1,30.49,ENE,68,0.0,0.7,84,0.00,,,0.00,WUHU216HW,2013-01-02 01:20:00,
2013-01-01 17:25:00,26.3,21.8,30.48,ENE,68,0.4,0.7,83,0.00,,,0.00,WUHU216HW,2013-01-02 01:25:00,
2013-01-01 17:30:00,26.3,22.1,30.48,ENE,68,0.4,1.1,84,0.00,,,0.00,WUHU216HW,2013-01-02 01:30:00,
2013-01-01 17:35:00,26.5,22.0,30.48,ENE,68,0.7,1.1,83,0.00,,,0.00,WUHU216HW,2013-01-02 01:35:00,
2013-01-01 17:40:00,26.3,21.8,30.48,ENE,68,0.0,1.1,83,0.00,,,0.00,WUHU216HW,2013-01-02 01:40:00,
2013-01-01 17:45:00,26.3,21.8,30.48,ENE,68,0.0,0.7,83,0.00,,,0.00,WUHU216HW,2013-01-02 01:45:00,
2013-01-01 17:50:00,26.3,22.1,30.48,ENE,68,0.0,0.0,84,0.00,,,0.00,WUHU216HW,2013-01-02 01:50:00,
2013-01-01 17:55:00,26.3,22.1,30.48,ENE,68,1.1,1.3,84,0.00,,,0.00,WUHU216HW,2013-01-02 01:55:00,
2013-01-01 18:00:00,26.3,22.1,30.48,ENE,68,0.0,1.3,84,0.00,,,0.00,WUHU216HW,2013-01-02 02:00:00,
2013-01-01 18:05:00,26.5,22.2,30.48,ENE,68,0.4,1.1,84,0.00,,,0.00,WUHU216HW,2013-01-02 02:05:00,
2013-01-01 18:10:00,26.3,22.1,30.48,ENE,68,0.2,1.8,84,0.00,,,0.00,WUHU216HW,2013-01-02 02:10:00,
2013-01-01 18:15:00,26.3,22.1,30.48,ENE,68,0.0,1.8,84,0.00,,,0.00,WUHU216HW,2013-01-02 02:15:00,
2013-01-01 18:20:00,26.3,21.8,30.48,ENE,68,0.0,0.4,83,0.00,,,0.00,WUHU216HW,2013-01-02 02:20:00,
2013-01-01 18:25:00,26.5,22.2,30.48,ENE,68,0.9,0.9,84,0.00,,,0.00,WUHU216HW,2013-01-02 02:25:00,
2013-01-01 18:30:00,26.3,21.8,30.48,ENE,68,0.0,0.9,83,0.00,,,0.00,WUHU216HW,2013-01-02 02:30:00,
2013-01-01 18:35:00,26.5,22.2,30.49,ENE,68,0.0,0.9,84,0.00,,,0.00,WUHU216HW,2013-01-02 02:35:00,
2013-01-01 18:40:00,26.6,22.2,30.49,ENE,68,0.0,0.0,83,0.00,,,0.00,WUHU216HW,2013-01-02 02:40:00,
2013-01-01 18:45:00,26.6,22.2,30.49,ENE,68,0.0,0.0,83,0.00,,,0.00,WUHU216HW,2013-01-02 02:45:00,
2013-01-01 18:50:00,26.6,22.2,30.49,ENE,68,0.0,0.0,83,0.00,,,0.00,WUHU216HW,2013-01-02 02:50:00,
2013-01-01 18:55:00,26.8,22.3,30.49,ENE,68,0.0,0.0,83,0.00,,,0.00,WUHU216HW,2013-01-02 02:55:00,
2013-01-01 19:00:00,26.6,22.2,30.49,ENE,68,0.0,0.0,83,0.00,,,0.00,WUHU216HW,2013-01-02 03:00:00,
2013-01-01 19:05:00,26.6,22.2,30.49,ENE,68,0.0,0.0,83,0.00,,,0.00,WUHU216HW,2013-01-02 03:05:00,
2013-01-01 19:10:00,26.6,22.2,30.49,ENE,68,0.0,0.0,83,0.00,,,0.00,WUHU216HW,2013-01-02 03:10:00,
2013-01-01 19:15:00,26.6,22.2,30.49,ENE,68,0.0,0.0,83,0.00,,,0.00,WUHU216HW,2013-01-02 03:15:00,
2013-01-01 19:20:00,26.6,22.2,30.49,ENE,68,0.0,0.0,83,0.00,,,0.00,WUHU216HW,2013-01-02 03:20:00,
2013-01-01 19:25:00,26.6,22.2,30.49,ENE,68,0.0,0.0,83,0.00,,,0.00,WUHU216HW,2013-01-02 03:25:00,
2013-01-01 19:30:00,26.6,22.2,30.49,ENE,68,0.0,0.0,83,0.00,,,0.00,WUHU216HW,2013-01-02 03:30:00,
2013-01-01 19:35:00,26.6,22.2,30.48,ENE,68,0.0,0.0,83,0.00,,,0.00,WUHU216HW,2013-01-02 03:35:00,
2013-01-01 19:40:00,26.8,22.3,30.49,ENE,68,0.0,0.0,83,0.00,,,0.00,WUHU216HW,2013-01-02 03:40:00,
2013-01-01 19:45:00,26.8,22.3,30.48,ENE,68,0.0,0.0,83,0.00,,,0.00,WUHU216HW,2013-01-02 03:45:00,
2013-01-01 19:50:00,26.6,22.2,30.49,ENE,68,0.0,0.0,83,0.00,,,0.00,WUHU216HW,2013-01-02 03:50:00,
2013-01-01 19:55:00,26.8,22.3,30.49,ENE,68,0.0,0.0,83,0.00,,,0.00,WUHU216HW,2013-01-02 03:55:00,
2013-01-01 20:00:00,26.8,22.3,30.49,ENE,68,0.0,0.0,83,0.00,,,0.00,WUHU216HW,2013-01-02 04:00:00,
2013-01-01 20:05:00,26.8,22.3,30.49,ENE,68,0.0,0.0,83,0.00,,,0.00,WUHU216HW,2013-01-02 04:05:00,
2013-01-01 20:10:00,26.8,22.3,30.49,ENE,68,0.0,0.0,83,0.00,,,0.00,WUHU216HW,2013-01-02 04:10:00,
2013-01-01 20:15:00,26.6,22.2,30.49,ENE,68,0.0,0.0,83,0.00,,,0.00,WUHU216HW,2013-01-02 04:15:00,
2013-01-01 20:20:00,26.6,22.2,30.49,ENE,68,0.0,0.0,83,0.00,,,0.00,WUHU216HW,2013-01-02 04:20:00,
2013-01-01 20:25:00,26.6,22.2,30.49,ENE,68,0.0,0.0,83,0.00,,,0.00,WUHU216HW,2013-01-02 04:25:00,
2013-01-01 20:30:00,26.6,22.2,30.49,ENE,68,0.0,0.0,83,0.00,,,0.00,WUHU216HW,2013-01-02 04:30:00,
2013-01-01 20:35:00,26.6,22.2,30.49,ENE,68,0.4,0.7,83,0.00,,,0.00,WUHU216HW,2013-01-02 04:35:00,
2013-01-01 20:40:00,26.5,22.0,30.49,ENE,68,0.0,0.7,83,0.00,,,0.00,WUHU216HW,2013-01-02 04:40:00,
2013-01-01 20:45:00,26.3,21.8,30.49,ENE,68,0.4,0.7,83,0.00,,,0.00,WUHU216HW,2013-01-02 04:45:00,
2013-01-01 20:50:00,26.3,21.8,30.50,ENE,68,0.0,0.7,83,0.00,,,0.00,WUHU216HW,2013-01-02 04:50:00,
2013-01-01 20:55:00,26.3,21.8,30.50,ENE,68,0.0,0.4,83,0.00,,,0.00,WUHU216HW,2013-01-02 04:55:00,
2013-01-01 21:00:00,26.3,21.8,30.50,ENE,68,0.0,0.0,83,0.00,,,0.00,WUHU216HW,2013-01-02 05:00:00,
2013-01-01 21:01:00,26.3,21.8,30.50,ENE,68,0.0,0.0,83,0.00,,,0.00,WUHU216HW,2013-01-02 05:01:00,
2013-01-01 21:06:00,26.3,21.8,30.49,ENE,68,0.0,0.0,83,0.00,,,0.00,WUHU216HW,2013-01-02 05:06:00,
2013-01-01 21:11:00,26.5,22.0,30.50,ENE,68,0.0,0.0,83,0.00,,,0.00,WUHU216HW,2013-01-02 05:11:00,
2013-01-01 21:16:00,26.5,22.0,30.50,ENE,68,0.0,0.0,83,0.00,,,0.00,WUHU216HW,2013-01-02 05:16:00,
2013-01-01 21:21:00,26.5,22.2,30.50,ENE,68,0.0,0.0,84,0.00,,,0.00,WUHU216HW,2013-01-02 05:21:00,
2013-01-01 21:26:00,26.6,22.4,30.49,ENE,68,0.0,0.0,84,0.00,,,0.00,WUHU216HW,2013-01-02 05:26:00,
2013-01-01 21:31:00,26.5,22.2,30.49,ENE,68,0.0,0.0,84,0.00,,,0.00,WUHU216HW,2013-01-02 05:31:00,
2013-01-01 21:36:00,26.6,22.2,30.49,ENE,68,0.0,0.0,83,0.00,,,0.00,WUHU216HW,2013-01-02 05:36:00,
2013-01-01 21:41:00,26.6,22.2,30.49,ENE,68,0.0,0.0,83,0.00,,,0.00,WUHU216HW,2013-01-02 05:41:00,
2013-01-01 21:46:00,26.6,22.2,30.49,ENE,68,0.0,0.0,83,0.00,,,0.00,WUHU216HW,2013-01-02 05:46:00,
2013-01-01 21:51:00,26.6,22.2,30.49,ENE,68,0.0,0.0,83,0.00,,,0.00,WUHU216HW,2013-01-02 05:51:00,
2013-01-01 21:56:00,26.6,22.2,30.49,ENE,68,0.0,0.0,83,0.00,,,0.00,WUHU216HW,2013-01-02 05:56:00,
2013-01-01 22:01:00,26.5,22.0,30.49,ENE,68,0.0,0.0,83,0.00,,,0.00,WUHU216HW,2013-01-02 06:01:00,
2013-01-01 22:06:00,26.5,22.0,30.49,ENE,68,0.0,0.0,83,0.00,,,0.00,WUHU216HW,2013-01-02 06:06:00,
2013-01-01 22:11:00,26.5,22.0,30.49,ENE,68,0.0,0.2,83,0.00,,,0.00,WUHU216HW,2013-01-02 06:11:00,
2013-01-01 22:16:00,26.5,22.0,30.49,ENE,68,0.0,0.2,83,0.00,,,0.00,WUHU216HW,2013-01-02 06:16:00,
2013-01-01 22:21:00,26.5,22.0,30.49,ENE,68,0.0,0.0,83,0.00,,,0.00,WUHU216HW,2013-01-02 06:21:00,
2013-01-01 22:26:00,26.5,22.0,30.49,ENE,68,0.0,0.0,83,0.00,,,0.00,WUHU216HW,2013-01-02 06:26:00,
2013-01-01 22:31:00,26.6,22.2,30.49,ENE,68,0.0,0.0,83,0.00,,,0.00,WUHU216HW,2013-01-02 06:31:00,
2013-01-01 22:36:00,26.6,22.2,30.49,ENE,68,0.0,0.0,83,0.00,,,0.00,WUHU216HW,2013-01-02 06:36:00,
2013-01-01 22:41:00,26.5,22.0,30.49,ENE,68,1.1,1.1,83,0.00,,,0.00,WUHU216HW,2013-01-02 06:41:00,
2013-01-01 22:46:00,26.3,21.8,30.50,ENE,68,0.4,1.1,83,0.00,,,0.00,WUHU216HW,2013-01-02 06:46:00,
2013-01-01 22:51:00,26.3,21.8,30.50,ENE,68,0.0,1.1,83,0.00,,,0.00,WUHU216HW,2013-01-02 06:51:00,
2013-01-01 22:56:00,26.5,22.0,30.49,ENE,68,0.0,0.4,83,0.00,,,0.00,WUHU216HW,2013-01-02 06:56:00,
2013-01-01 23:01:00,26.5,22.0,30.49,ENE,68,0.0,0.0,83,0.00,,,0.00,WUHU216HW,2013-01-02 07:01:00,
2013-01-01 23:06:00,26.5,22.0,30.49,ENE,68,0.0,0.0,83,0.00,,,0.00,WUHU216HW,2013-01-02 07:06:00,
2013-01-01 23:11:00,26.5,22.0,30.49,ENE,68,0.0,0.0,83,0.00,,,0.00,WUHU216HW,2013-01-02 07:11:00,
2013-01-01 23:16:00,26.5,22.0,30.50,ENE,68,0.0,0.0,83,0.00,,,0.00,WUHU216HW,2013-01-02 07:16:00,
2013-01-01 23:21:00,26.5,22.0,30.50,ENE,68,0.0,0.0,83,0.00,,,0.00,WUHU216HW,2013-01-02 07:21:00,
2013-01-01 23:26:00,26.5,22.0,30.49,ENE,68,0.0,0.0,83,0.00,,,0.00,WUHU216HW,2013-01-02 07:26:00,
2013-01-01 23:31:00,26.5,22.2,30.50,ENE,68,0.0,0.4,84,0.00,,,0.00,WUHU216HW,2013-01-02 07:31:00,
2013-01-01 23:36:00,26.5,22.0,30.50,ENE,68,0.0,0.4,83,0.00,,,0.00,WUHU216HW,2013-01-02 07:36:00,
2013-01-01 23:41:00,26.5,22.2,30.50,ENE,68,0.0,0.4,84,0.00,,,0.00,WUHU216HW,2013-01-02 07:41:00,
2013-01-01 23:46:00,26.5,22.2,30.50,ENE,68,0.0,0.0,84,0.00,,,0.00,WUHU216HW,2013-01-02 07:46:00,
2013-01-01 23:51:00,26.5,22.2,30.50,ENE,68,0.0,0.7,84,0.00,,,0.00,WUHU216HW,2013-01-02 07:51:00,
2013-01-01 23:56:00,26.5,22.2,30.50,ENE,68,0.4,0.7,84,0.00,,,0.00,WUHU216HW,2013-01-02 07:56:00,